Powrót do katalogu

SL-3 DEB

AktywnyPO
NORAD 25255·DEBRIS·🇷🇺 Russia

Wystrzelony May 14, 1981 z Plesetsk Cosmodrome

Loading…

Następne Przeloty (najbliższe 24 godziny)

TLE

ŚwieżeSource: Space-Track

Epoka: Sep 14, 2026, 06:53 UTC

1 25255U 81043D   26257.28720201 -.00000070  00000-0 -47555-4 0  9998
2 25255  81.2934  94.0567 0044970 338.1339 143.8097 14.08689948534532

Śledź SL-3 DEB w czasie rzeczywistym z AllMySat

Download on the App Store